Location: Six Mile Lake
(44.9000°N, 79.7170°W)
Time: 12:56:55
(UTC-04:00)

O/OREOS (USA 219) - Pass Details

Date: 03 July 2022
Orbit: 621 x 646 km, 72.0° (Epoch: 22 May)

Event Time Altitude Azimuth Distance (km) Brightness Sun altitude
Rises 02:20:38 0° 324° (NW) 2,964 ? -20.9°
Reaches altitude 10° 02:23:15 10° 310° (NW) 2,051 ? -20.8°
Enters shadow 02:26:46 24° 261° (W) 1,342 ? -20.6°
